Time,TemperatureF,DewpointF,PressureIn,WindDirection,WindDirectionDegrees,WindSpeedMPH,WindSpeedGustMPH,Humidity,HourlyPrecipIn,Conditions,Clouds,dailyrainin,SoftwareType,DateUTC
2013-05-28 00:01:00,49.1,38.6,30.09,SSE,161,0.0,0.0,67,0.00,,---,0.00,VWS V14.01,2013-05-28 04:01:00,
2013-05-28 00:03:00,46.7,36.3,30.09,ESE,119,0.0,0.0,67,0.00,,---,0.00,VWS V14.01,2013-05-28 04:03:00,
2013-05-28 00:08:00,46.7,36.3,30.09,ESE,119,0.0,0.0,67,0.00,,---,0.00,VWS V14.01,2013-05-28 04:08:00,
2013-05-28 00:13:00,46.7,36.3,30.09,ESE,119,0.0,0.0,67,0.00,,---,0.00,VWS V14.01,2013-05-28 04:13:00,
2013-05-28 00:18:00,46.7,36.3,30.10,ESE,119,0.0,0.0,67,0.00,,---,0.00,VWS V14.01,2013-05-28 04:18:00,
2013-05-28 00:24:00,46.7,36.3,30.10,ESE,119,0.0,0.0,67,0.00,,---,0.00,VWS V14.01,2013-05-28 04:24:00,
2013-05-28 00:29:00,46.7,36.3,30.10,ESE,119,0.0,0.0,67,0.00,,---,0.00,VWS V14.01,2013-05-28 04:29:00,
2013-05-28 00:34:00,46.7,36.3,30.10,ESE,119,0.0,0.0,67,0.00,,---,0.00,VWS V14.01,2013-05-28 04:34:00,
2013-05-28 00:39:00,46.7,36.3,30.10,ESE,119,0.0,0.0,67,0.00,,---,0.00,VWS V14.01,2013-05-28 04:39:00,
2013-05-28 00:44:00,46.7,36.3,30.10,ESE,119,0.0,0.0,67,0.00,,---,0.00,VWS V14.01,2013-05-28 04:44:00,
2013-05-28 00:49:00,46.7,36.3,30.10,ESE,119,0.0,0.0,67,0.00,,---,0.00,VWS V14.01,2013-05-28 04:49:00,
2013-05-28 00:54:00,46.7,36.3,30.10,ESE,119,0.0,0.0,67,0.00,,---,0.00,VWS V14.01,2013-05-28 04:54:00,
2013-05-28 00:59:00,46.7,36.3,30.10,ESE,119,0.0,0.0,67,0.00,,---,0.00,VWS V14.01,2013-05-28 04:59:00,
2013-05-28 01:04:00,46.7,36.3,30.11,ESE,119,0.0,0.0,67,0.00,,---,0.00,VWS V14.01,2013-05-28 05:04:00,
2013-05-28 01:09:00,46.7,36.3,30.11,ESE,119,0.0,0.0,67,0.00,,---,0.00,VWS V14.01,2013-05-28 05:09:00,
2013-05-28 01:14:00,47.1,36.7,30.11,ESE,119,0.0,0.0,67,0.00,,---,0.00,VWS V14.01,2013-05-28 05:14:00,
2013-05-28 01:19:00,47.1,36.7,30.11,ESE,119,0.0,0.0,67,0.00,,---,0.00,VWS V14.01,2013-05-28 05:19:00,
2013-05-28 01:24:00,47.1,36.7,30.11,ESE,119,0.0,0.0,67,0.00,,---,0.00,VWS V14.01,2013-05-28 05:24:00,
2013-05-28 01:29:00,46.7,44.2,30.11,ESE,119,0.0,0.0,91,0.00,,---,0.00,VWS V14.01,2013-05-28 05:29:00,
2013-05-28 01:34:00,46.7,44.2,30.12,ESE,119,0.0,0.0,91,0.00,,---,0.00,VWS V14.01,2013-05-28 05:34:00,
2013-05-28 01:39:00,46.7,44.2,30.12,ESE,119,0.0,0.0,91,0.00,,---,0.00,VWS V14.01,2013-05-28 05:39:00,
2013-05-28 01:44:00,46.7,44.2,30.12,ESE,119,0.0,0.0,91,0.00,,---,0.00,VWS V14.01,2013-05-28 05:44:00,
2013-05-28 01:49:00,46.7,44.2,30.12,ESE,119,0.0,0.0,91,0.00,,---,0.00,VWS V14.01,2013-05-28 05:49:00,
2013-05-28 01:54:00,46.7,44.2,30.12,ESE,119,0.0,0.0,91,0.00,,---,0.00,VWS V14.01,2013-05-28 05:54:00,
2013-05-28 01:59:00,46.7,44.2,30.12,ESE,119,0.0,0.0,91,0.00,,---,0.00,VWS V14.01,2013-05-28 05:59:00,
2013-05-28 02:05:00,46.7,44.2,30.12,ESE,119,0.0,0.0,91,0.00,,---,0.00,VWS V14.01,2013-05-28 06:05:00,
2013-05-28 02:10:00,46.7,44.2,30.12,ESE,119,0.0,0.0,91,0.00,,---,0.00,VWS V14.01,2013-05-28 06:10:00,
2013-05-28 02:15:00,46.7,44.2,30.12,ESE,119,0.0,0.0,91,0.00,,---,0.00,VWS V14.01,2013-05-28 06:15:00,
2013-05-28 02:20:00,46.7,44.2,30.12,ESE,119,0.0,0.0,91,0.00,,---,0.00,VWS V14.01,2013-05-28 06:20:00,
2013-05-28 02:25:00,46.7,44.2,30.12,ESE,119,0.0,0.0,91,0.00,,---,0.00,VWS V14.01,2013-05-28 06:25:00,
2013-05-28 02:30:00,46.7,44.2,30.12,ESE,119,0.0,0.0,91,0.00,,---,0.00,VWS V14.01,2013-05-28 06:30:00,
2013-05-28 02:35:00,46.7,44.2,30.12,ESE,119,0.0,0.0,91,0.00,,---,0.00,VWS V14.01,2013-05-28 06:35:00,
2013-05-28 02:40:00,46.7,44.2,30.12,ESE,117,0.0,0.0,91,0.00,,---,0.00,VWS V14.01,2013-05-28 06:40:00,
2013-05-28 02:45:00,46.7,44.2,30.12,ESE,117,0.0,0.0,91,0.00,,---,0.00,VWS V14.01,2013-05-28 06:45:00,
2013-05-28 02:50:00,45.1,42.6,30.12,ESE,117,0.0,0.0,91,0.00,,---,0.00,VWS V14.01,2013-05-28 06:50:00,
2013-05-28 02:55:00,45.1,42.6,30.12,ESE,117,0.0,0.0,91,0.00,,---,0.00,VWS V14.01,2013-05-28 06:55:00,
2013-05-28 03:00:00,45.1,42.6,30.12,ESE,117,0.0,0.0,91,0.00,,---,0.00,VWS V14.01,2013-05-28 07:00:00,
2013-05-28 03:05:00,45.1,42.6,30.12,ESE,117,0.0,0.0,91,0.00,,---,0.00,VWS V14.01,2013-05-28 07:05:00,
2013-05-28 03:10:00,44.6,42.1,30.12,ESE,117,0.0,0.0,91,0.00,,---,0.00,VWS V14.01,2013-05-28 07:10:00,
2013-05-28 03:15:00,44.8,42.3,30.12,ESE,117,0.0,0.0,91,0.00,,---,0.00,VWS V14.01,2013-05-28 07:15:00,
2013-05-28 03:20:00,44.8,42.3,30.12,ESE,117,0.0,0.0,91,0.00,,---,0.00,VWS V14.01,2013-05-28 07:20:00,
2013-05-28 03:26:00,44.8,42.3,30.12,ESE,117,0.0,0.0,91,0.00,,---,0.00,VWS V14.01,2013-05-28 07:26:00,
2013-05-28 03:31:00,44.8,42.3,30.12,ESE,117,0.0,0.0,91,0.00,,---,0.00,VWS V14.01,2013-05-28 07:31:00,
2013-05-28 03:36:00,44.3,41.8,30.12,ESE,117,0.0,0.0,91,0.00,,---,0.00,VWS V14.01,2013-05-28 07:36:00,
2013-05-28 03:41:00,44.3,41.8,30.12,ESE,117,0.0,0.0,91,0.00,,---,0.00,VWS V14.01,2013-05-28 07:41:00,
2013-05-28 03:46:00,44.2,41.7,30.12,ESE,117,0.0,0.0,91,0.00,,---,0.00,VWS V14.01,2013-05-28 07:46:00,
2013-05-28 03:51:00,44.2,41.7,30.12,ESE,117,0.0,0.0,91,0.00,,---,0.00,VWS V14.01,2013-05-28 07:51:00,
2013-05-28 03:56:00,44.2,41.7,30.12,ESE,117,0.0,0.0,91,0.00,,---,0.00,VWS V14.01,2013-05-28 07:56:00,
2013-05-28 04:01:00,44.2,41.7,30.12,ESE,117,0.0,0.0,91,0.00,,---,0.00,VWS V14.01,2013-05-28 08:01:00,
2013-05-28 04:06:00,44.2,41.7,30.12,ESE,117,0.0,0.0,91,0.00,,---,0.00,VWS V14.01,2013-05-28 08:06:00,
2013-05-28 04:11:00,43.9,41.5,30.12,ESE,117,0.0,0.0,91,0.00,,---,0.00,VWS V14.01,2013-05-28 08:11:00,
2013-05-28 04:16:00,43.9,41.5,30.12,ESE,117,0.0,0.0,91,0.00,,---,0.00,VWS V14.01,2013-05-28 08:16:00,
2013-05-28 04:21:00,43.9,41.5,30.12,ESE,117,0.0,0.0,91,0.00,,---,0.00,VWS V14.01,2013-05-28 08:21:00,
2013-05-28 04:26:00,43.9,41.5,30.12,ESE,117,0.0,0.0,91,0.00,,---,0.00,VWS V14.01,2013-05-28 08:26:00,
2013-05-28 04:31:00,43.8,41.3,30.13,ESE,117,0.0,0.0,91,0.00,,---,0.00,VWS V14.01,2013-05-28 08:31:00,
2013-05-28 04:36:00,43.8,41.3,30.13,ESE,120,0.0,0.0,91,0.00,,---,0.00,VWS V14.01,2013-05-28 08:36:00,
2013-05-28 04:41:00,43.6,41.2,30.13,ESE,120,0.0,0.0,91,0.00,,---,0.00,VWS V14.01,2013-05-28 08:41:00,
2013-05-28 04:46:00,43.6,41.2,30.13,ESE,120,0.0,0.0,91,0.00,,---,0.00,VWS V14.01,2013-05-28 08:46:00,
2013-05-28 04:52:00,43.5,41.0,30.13,ESE,121,0.0,0.0,91,0.00,,---,0.00,VWS V14.01,2013-05-28 08:52:00,
2013-05-28 04:57:00,43.5,41.0,30.13,ESE,121,0.0,0.0,91,0.00,,---,0.00,VWS V14.01,2013-05-28 08:57:00,
2013-05-28 05:02:00,43.5,41.0,30.13,ESE,121,0.0,0.0,91,0.00,,---,0.00,VWS V14.01,2013-05-28 09:02:00,
2013-05-28 05:07:00,43.5,41.0,30.13,ESE,121,0.0,0.0,91,0.00,,---,0.00,VWS V14.01,2013-05-28 09:07:00,
2013-05-28 05:12:00,43.6,41.2,30.13,ESE,121,0.0,0.0,91,0.00,,---,0.00,VWS V14.01,2013-05-28 09:12:00,
2013-05-28 05:17:00,43.6,41.2,30.14,ESE,121,0.0,0.0,91,0.00,,---,0.00,VWS V14.01,2013-05-28 09:17:00,
2013-05-28 05:22:00,43.6,41.2,30.14,ESE,121,0.0,0.0,91,0.00,,---,0.00,VWS V14.01,2013-05-28 09:22:00,
2013-05-28 05:27:00,43.6,41.2,30.14,ESE,121,0.0,0.0,91,0.00,,---,0.00,VWS V14.01,2013-05-28 09:27:00,
2013-05-28 05:32:00,44.2,44.2,30.14,ESE,121,0.0,0.0,100,0.00,,---,0.00,VWS V14.01,2013-05-28 09:32:00,
2013-05-28 05:37:00,44.2,44.2,30.14,ESE,121,0.0,0.0,100,0.00,,---,0.00,VWS V14.01,2013-05-28 09:37:00,
2013-05-28 05:42:00,44.2,44.2,30.14,ESE,121,0.0,0.0,100,0.00,,---,0.00,VWS V14.01,2013-05-28 09:42:00,
2013-05-28 05:47:00,44.2,44.2,30.14,ESE,121,0.0,0.0,100,0.00,,---,0.00,VWS V14.01,2013-05-28 09:47:00,
2013-05-28 05:53:00,44.2,44.2,30.14,ESE,121,0.0,0.0,100,0.00,,---,0.00,VWS V14.01,2013-05-28 09:53:00,
2013-05-28 05:58:00,44.2,44.2,30.14,ESE,121,0.0,0.0,100,0.00,,---,0.00,VWS V14.01,2013-05-28 09:58:00,
2013-05-28 06:03:00,44.2,44.2,30.15,ESE,121,0.0,0.0,100,0.00,,---,0.00,VWS V14.01,2013-05-28 10:03:00,
2013-05-28 06:08:00,44.2,44.2,30.15,ESE,121,0.0,0.0,100,0.00,,---,0.00,VWS V14.01,2013-05-28 10:08:00,
2013-05-28 06:13:00,44.2,44.2,30.15,ESE,121,0.0,0.0,100,0.00,,---,0.00,VWS V14.01,2013-05-28 10:13:00,
2013-05-28 06:18:00,46.5,46.5,30.15,ESE,121,0.0,0.0,100,0.00,,---,0.00,VWS V14.01,2013-05-28 10:18:00,
2013-05-28 06:23:00,47.1,47.1,30.15,ESE,121,0.0,0.0,100,0.00,,---,0.00,VWS V14.01,2013-05-28 10:23:00,
2013-05-28 06:28:00,47.1,47.1,30.15,ESE,121,0.0,0.0,100,0.00,,---,0.00,VWS V14.01,2013-05-28 10:28:00,
2013-05-28 06:33:00,47.1,47.1,30.15,ESE,121,0.0,0.0,100,0.00,,---,0.00,VWS V14.01,2013-05-28 10:33:00,
2013-05-28 06:38:00,47.1,47.1,30.15,ESE,121,0.0,0.0,100,0.00,,---,0.00,VWS V14.01,2013-05-28 10:38:00,
2013-05-28 06:43:00,47.1,47.1,30.15,ESE,120,0.0,0.0,100,0.00,,---,0.00,VWS V14.01,2013-05-28 10:43:00,
2013-05-28 06:48:00,49.9,49.9,30.15,ESE,120,0.0,0.0,100,0.00,,---,0.00,VWS V14.01,2013-05-28 10:48:00,
2013-05-28 06:53:00,49.9,49.9,30.15,ESE,120,0.0,0.0,100,0.00,,---,0.00,VWS V14.01,2013-05-28 10:53:00,
2013-05-28 06:58:00,49.9,49.9,30.15,ESE,120,0.0,0.0,100,0.00,,---,0.00,VWS V14.01,2013-05-28 10:58:00,
2013-05-28 07:03:00,49.9,49.9,30.15,ESE,120,0.0,0.0,100,0.00,,---,0.00,VWS V14.01,2013-05-28 11:03:00,
2013-05-28 07:08:00,49.5,49.5,30.15,ESE,120,0.0,0.0,100,0.00,,---,0.00,VWS V14.01,2013-05-28 11:08:00,
2013-05-28 07:13:00,49.5,49.5,30.15,ESE,120,0.0,0.0,100,0.00,,---,0.00,VWS V14.01,2013-05-28 11:13:00,
2013-05-28 07:19:00,49.5,49.5,30.16,ESE,120,0.0,0.0,100,0.00,,---,0.00,VWS V14.01,2013-05-28 11:19:00,
2013-05-28 07:24:00,49.5,49.5,30.16,ESE,120,0.0,0.0,100,0.00,,---,0.00,VWS V14.01,2013-05-28 11:24:00,
2013-05-28 07:29:00,49.5,49.5,30.16,ESE,120,0.0,0.0,100,0.00,,---,0.00,VWS V14.01,2013-05-28 11:29:00,
2013-05-28 07:34:00,49.5,49.5,30.16,ESE,120,0.0,0.0,100,0.00,,---,0.00,VWS V14.01,2013-05-28 11:34:00,
2013-05-28 07:39:00,49.5,49.5,30.16,SW,230,0.0,0.0,100,0.00,,---,0.00,VWS V14.01,2013-05-28 11:39:00,
2013-05-28 07:44:00,49.5,49.5,30.16,SW,230,0.0,0.0,100,0.00,,---,0.00,VWS V14.01,2013-05-28 11:44:00,
2013-05-28 07:49:00,53.2,53.2,30.16,SW,230,0.0,0.0,100,0.00,,---,0.00,VWS V14.01,2013-05-28 11:49:00,
2013-05-28 07:54:00,53.2,53.2,30.16,WSW,250,5.0,5.0,100,0.00,,---,0.00,VWS V14.01,2013-05-28 11:54:00,
2013-05-28 07:59:00,54.5,54.5,30.16,WSW,254,5.0,5.0,100,0.00,,---,0.00,VWS V14.01,2013-05-28 11:59:00,
2013-05-28 08:04:00,54.5,54.5,30.16,WSW,254,0.0,0.0,100,0.00,,---,0.00,VWS V14.01,2013-05-28 12:04:00,
2013-05-28 08:09:00,55.7,55.7,30.16,WSW,258,1.0,1.0,100,0.00,,---,0.00,VWS V14.01,2013-05-28 12:09:00,
2013-05-28 08:14:00,55.7,55.7,30.16,WSW,258,0.0,1.0,100,0.00,,---,0.00,VWS V14.01,2013-05-28 12:14:00,
2013-05-28 08:19:00,55.7,55.7,30.16,WSW,258,0.0,1.0,100,0.00,,---,0.00,VWS V14.01,2013-05-28 12:19:00,
2013-05-28 08:25:00,55.7,55.7,30.16,WSW,243,5.0,5.0,100,0.00,,---,0.00,VWS V14.01,2013-05-28 12:25:00,
2013-05-28 08:30:00,55.7,55.7,30.16,WSW,243,5.0,5.0,100,0.00,,---,0.00,VWS V14.01,2013-05-28 12:30:00,
2013-05-28 08:35:00,55.7,55.7,30.16,WSW,243,5.0,5.0,100,0.00,,---,0.00,VWS V14.01,2013-05-28 12:35:00,
2013-05-28 08:40:00,55.7,55.7,30.16,WSW,243,5.0,5.0,100,0.00,,---,0.00,VWS V14.01,2013-05-28 12:40:00,
2013-05-28 08:45:00,55.7,55.7,30.16,WSW,243,5.0,5.0,100,0.00,,---,0.00,VWS V14.01,2013-05-28 12:45:00,
2013-05-28 08:50:00,57.8,57.8,30.16,WSW,247,6.0,6.0,100,0.00,,---,0.00,VWS V14.01,2013-05-28 12:50:00,
2013-05-28 08:55:00,57.8,57.8,30.16,WSW,247,6.0,6.0,100,0.00,,---,0.00,VWS V14.01,2013-05-28 12:55:00,
2013-05-28 09:00:00,57.8,57.8,30.16,WSW,247,5.0,6.0,100,0.00,,---,0.00,VWS V14.01,2013-05-28 13:00:00,
2013-05-28 09:05:00,57.8,57.8,30.16,WSW,247,2.0,5.0,100,0.00,,---,0.00,VWS V14.01,2013-05-28 13:05:00,
2013-05-28 09:10:00,57.8,57.8,30.16,WSW,247,2.0,5.0,100,0.00,,---,0.00,VWS V14.01,2013-05-28 13:10:00,
2013-05-28 09:15:00,57.8,57.8,30.16,WSW,247,2.0,5.0,100,0.00,,---,0.00,VWS V14.01,2013-05-28 13:15:00,
2013-05-28 09:20:00,57.8,57.8,30.16,WSW,247,2.0,5.0,100,0.00,,---,0.00,VWS V14.01,2013-05-28 13:20:00,
2013-05-28 09:25:00,57.8,57.8,30.16,WSW,247,2.0,5.0,100,0.00,,---,0.00,VWS V14.01,2013-05-28 13:25:00,
2013-05-28 09:30:00,57.8,57.8,30.16,WSW,247,2.0,5.0,100,0.00,,---,0.00,VWS V14.01,2013-05-28 13:30:00,
2013-05-28 09:35:00,57.8,57.8,30.16,WSW,247,6.0,6.0,100,0.00,,---,0.00,VWS V14.01,2013-05-28 13:35:00,
2013-05-28 09:40:00,57.8,57.8,30.16,WSW,247,6.0,6.0,100,0.00,,---,0.00,VWS V14.01,2013-05-28 13:40:00,
2013-05-28 09:45:00,57.8,57.8,30.16,WSW,248,6.0,6.0,100,0.00,,---,0.00,VWS V14.01,2013-05-28 13:45:00,
2013-05-28 09:50:00,57.8,57.8,30.16,WSW,248,6.0,6.0,100,0.00,,---,0.00,VWS V14.01,2013-05-28 13:50:00,
2013-05-28 09:55:00,57.8,57.8,30.16,WSW,250,5.0,6.0,100,0.00,,---,0.00,VWS V14.01,2013-05-28 13:55:00,
2013-05-28 10:00:00,57.8,57.8,30.16,WSW,251,2.0,6.0,100,0.00,,---,0.00,VWS V14.01,2013-05-28 14:00:00,
2013-05-28 10:06:00,61.3,61.3,30.16,WSW,251,5.0,5.0,100,0.00,,---,0.00,VWS V14.01,2013-05-28 14:06:00,
2013-05-28 10:11:00,61.3,61.3,30.16,WSW,251,4.0,5.0,100,0.00,,---,0.00,VWS V14.01,2013-05-28 14:11:00,
2013-05-28 10:16:00,61.3,61.3,30.16,WSW,250,7.0,7.0,100,0.00,,---,0.00,VWS V14.01,2013-05-28 14:16:00,
2013-05-28 10:21:00,61.8,61.8,30.16,SW,233,5.0,7.0,100,0.00,,---,0.00,VWS V14.01,2013-05-28 14:21:00,
2013-05-28 10:26:00,61.8,61.8,30.16,SW,233,5.0,7.0,100,0.00,,---,0.00,VWS V14.01,2013-05-28 14:26:00,
2013-05-28 10:31:00,61.8,61.8,30.17,SW,233,5.0,7.0,100,0.00,,---,0.00,VWS V14.01,2013-05-28 14:31:00,
2013-05-28 10:36:00,61.8,61.8,30.17,SW,233,5.0,7.0,100,0.00,,---,0.00,VWS V14.01,2013-05-28 14:36:00,
2013-05-28 10:41:00,61.8,61.8,30.17,SW,233,5.0,7.0,100,0.00,,---,0.00,VWS V14.01,2013-05-28 14:41:00,
2013-05-28 10:46:00,61.8,61.8,30.17,SW,233,5.0,7.0,100,0.00,,---,0.00,VWS V14.01,2013-05-28 14:46:00,
2013-05-28 10:51:00,61.8,61.8,30.17,SW,233,5.0,7.0,100,0.00,,---,0.00,VWS V14.01,2013-05-28 14:51:00,
2013-05-28 10:56:00,61.8,61.8,30.17,SW,233,5.0,7.0,100,0.00,,---,0.00,VWS V14.01,2013-05-28 14:56:00,
2013-05-28 11:01:00,63.4,63.4,30.17,WSW,244,6.0,6.0,100,0.00,,---,0.00,VWS V14.01,2013-05-28 15:01:00,
2013-05-28 11:06:00,63.4,63.4,30.17,WSW,244,6.0,6.0,100,0.00,,---,0.00,VWS V14.01,2013-05-28 15:06:00,
2013-05-28 11:12:00,63.4,63.4,30.17,WSW,244,6.0,6.0,100,0.00,,---,0.00,VWS V14.01,2013-05-28 15:12:00,
2013-05-28 11:17:00,63.4,63.4,30.17,WSW,244,6.0,6.0,100,0.00,,---,0.00,VWS V14.01,2013-05-28 15:17:00,
2013-05-28 11:22:00,63.4,63.4,30.17,WSW,244,6.0,6.0,100,0.00,,---,0.00,VWS V14.01,2013-05-28 15:22:00,
2013-05-28 11:27:00,63.4,63.4,30.17,WSW,244,6.0,6.0,100,0.00,,---,0.00,VWS V14.01,2013-05-28 15:27:00,
2013-05-28 11:32:00,63.4,63.4,30.17,WSW,244,6.0,6.0,100,0.00,,---,0.00,VWS V14.01,2013-05-28 15:32:00,
2013-05-28 11:37:00,63.4,63.4,30.17,WSW,244,6.0,6.0,100,0.00,,---,0.00,VWS V14.01,2013-05-28 15:37:00,
2013-05-28 11:42:00,63.4,63.4,30.17,WSW,244,6.0,6.0,100,0.00,,---,0.00,VWS V14.01,2013-05-28 15:42:00,
2013-05-28 11:47:00,63.4,63.4,30.17,WSW,244,6.0,6.0,100,0.00,,---,0.00,VWS V14.01,2013-05-28 15:47:00,
2013-05-28 11:52:00,63.4,63.4,30.17,WSW,244,6.0,6.0,100,0.00,,---,0.00,VWS V14.01,2013-05-28 15:52:00,
2013-05-28 11:57:00,63.4,63.4,30.17,WSW,244,6.0,6.0,100,0.00,,---,0.00,VWS V14.01,2013-05-28 15:57:00,
2013-05-28 12:03:00,64.3,64.3,30.17,SW,215,6.0,6.0,100,0.00,,---,0.00,VWS V14.01,2013-05-28 16:03:00,
2013-05-28 12:08:00,64.3,64.3,30.17,SW,226,6.0,6.0,100,0.00,,---,0.00,VWS V14.01,2013-05-28 16:08:00,
2013-05-28 12:13:00,64.3,64.3,30.17,SSW,210,1.0,6.0,100,0.00,,---,0.00,VWS V14.01,2013-05-28 16:13:00,
2013-05-28 12:18:00,64.3,64.3,30.16,SSW,210,1.0,6.0,100,0.00,,---,0.00,VWS V14.01,2013-05-28 16:18:00,
2013-05-28 12:23:00,64.3,64.3,30.16,SSW,210,1.0,6.0,100,0.00,,---,0.00,VWS V14.01,2013-05-28 16:23:00,
2013-05-28 12:28:00,64.3,64.3,30.16,SW,215,3.0,6.0,100,0.00,,---,0.00,VWS V14.01,2013-05-28 16:28:00,
2013-05-28 12:33:00,64.3,64.3,30.17,SW,227,7.0,7.0,100,0.00,,---,0.00,VWS V14.01,2013-05-28 16:33:00,
2013-05-28 12:38:00,64.3,64.3,30.17,SSW,213,7.0,7.0,100,0.00,,---,0.00,VWS V14.01,2013-05-28 16:38:00,
2013-05-28 12:43:00,64.3,64.3,30.17,SSW,213,7.0,7.0,100,0.00,,---,0.00,VWS V14.01,2013-05-28 16:43:00,
2013-05-28 12:48:00,65.2,65.2,30.16,SSW,213,10.0,10.0,100,0.00,,---,0.00,VWS V14.01,2013-05-28 16:48:00,
2013-05-28 12:53:00,65.2,65.2,30.16,SSW,213,10.0,10.0,100,0.00,,---,0.00,VWS V14.01,2013-05-28 16:53:00,
2013-05-28 12:58:00,65.2,65.2,30.16,SW,215,5.0,10.0,100,0.00,,---,0.00,VWS V14.01,2013-05-28 16:58:00,
2013-05-28 13:03:00,65.2,65.2,30.16,SSW,200,4.0,4.0,100,0.00,,---,0.00,VWS V14.01,2013-05-28 17:03:00,
2013-05-28 13:08:00,65.2,65.2,30.16,SSW,200,4.0,4.0,100,0.00,,---,0.00,VWS V14.01,2013-05-28 17:08:00,
2013-05-28 13:13:00,65.2,65.2,30.16,WSW,237,7.0,7.0,100,0.00,,---,0.00,VWS V14.01,2013-05-28 17:13:00,
2013-05-28 13:18:00,65.2,65.2,30.16,WSW,237,7.0,7.0,100,0.00,,---,0.00,VWS V14.01,2013-05-28 17:18:00,
2013-05-28 13:23:00,65.2,65.2,30.16,WSW,237,7.0,7.0,100,0.00,,---,0.00,VWS V14.01,2013-05-28 17:23:00,
2013-05-28 13:28:00,65.2,65.2,30.16,WSW,237,7.0,7.0,100,0.00,,---,0.00,VWS V14.01,2013-05-28 17:28:00,
2013-05-28 13:33:00,65.2,65.2,30.16,WSW,237,7.0,7.0,100,0.00,,---,0.00,VWS V14.01,2013-05-28 17:33:00,
2013-05-28 13:39:00,65.2,65.2,30.16,WSW,237,7.0,7.0,100,0.00,,---,0.00,VWS V14.01,2013-05-28 17:39:00,
2013-05-28 13:43:00,65.2,65.2,30.16,WSW,237,7.0,7.0,100,0.00,,---,0.00,VWS V14.01,2013-05-28 17:43:00,
2013-05-28 13:49:00,65.2,65.2,30.16,WSW,237,7.0,7.0,100,0.00,,---,0.00,VWS V14.01,2013-05-28 17:49:00,
2013-05-28 13:54:00,65.2,65.2,30.16,WSW,237,7.0,7.0,100,0.00,,---,0.00,VWS V14.01,2013-05-28 17:54:00,
2013-05-28 13:59:00,65.2,65.2,30.16,WSW,237,7.0,7.0,100,0.00,,---,0.00,VWS V14.01,2013-05-28 17:59:00,
2013-05-28 14:04:00,65.2,65.2,30.16,WSW,237,7.0,7.0,100,0.00,,---,0.00,VWS V14.01,2013-05-28 18:04:00,
2013-05-28 14:09:00,65.2,65.2,30.16,WSW,237,7.0,7.0,100,0.00,,---,0.00,VWS V14.01,2013-05-28 18:09:00,
2013-05-28 14:14:00,65.2,65.2,30.16,WSW,237,7.0,7.0,100,0.00,,---,0.00,VWS V14.01,2013-05-28 18:14:00,
2013-05-28 14:19:00,65.2,65.2,30.16,WSW,237,7.0,7.0,100,0.00,,---,0.00,VWS V14.01,2013-05-28 18:19:00,
2013-05-28 14:24:00,65.2,65.2,30.16,WSW,237,7.0,7.0,100,0.00,,---,0.00,VWS V14.01,2013-05-28 18:24:00,
2013-05-28 14:29:00,65.2,39.0,30.16,SSW,198,2.0,11.0,38,0.00,,---,0.00,VWS V14.01,2013-05-28 18:29:00,
2013-05-28 14:34:00,65.2,39.0,30.16,SW,219,8.0,11.0,38,0.00,,---,0.00,VWS V14.01,2013-05-28 18:34:00,
2013-05-28 14:39:00,65.2,39.0,30.16,SW,219,8.0,11.0,38,0.00,,---,0.00,VWS V14.01,2013-05-28 18:39:00,
2013-05-28 14:44:00,65.2,39.0,30.16,SW,219,8.0,11.0,38,0.00,,---,0.00,VWS V14.01,2013-05-28 18:44:00,
2013-05-28 14:49:00,65.2,39.0,30.16,SW,219,8.0,11.0,38,0.00,,---,0.00,VWS V14.01,2013-05-28 18:49:00,
2013-05-28 14:54:00,65.2,39.0,30.16,SW,219,8.0,11.0,38,0.00,,---,0.00,VWS V14.01,2013-05-28 18:54:00,
2013-05-28 14:59:00,65.2,39.0,30.16,SW,219,8.0,11.0,38,0.00,,---,0.00,VWS V14.01,2013-05-28 18:59:00,
2013-05-28 15:04:00,65.2,39.0,30.16,SW,219,8.0,8.0,38,0.00,,---,0.00,VWS V14.01,2013-05-28 19:04:00,
2013-05-28 15:09:00,65.2,39.0,30.16,SW,219,8.0,8.0,38,0.00,,---,0.00,VWS V14.01,2013-05-28 19:09:00,
2013-05-28 15:14:00,65.2,39.0,30.16,SW,219,8.0,8.0,38,0.00,,---,0.00,VWS V14.01,2013-05-28 19:14:00,
2013-05-28 15:19:00,65.2,39.0,30.16,SW,219,8.0,8.0,38,0.00,,---,0.00,VWS V14.01,2013-05-28 19:19:00,
2013-05-28 15:24:00,65.2,39.0,30.16,SW,219,8.0,8.0,38,0.00,,---,0.00,VWS V14.01,2013-05-28 19:24:00,
2013-05-28 15:29:00,65.2,39.0,30.16,SW,219,8.0,8.0,38,0.00,,---,0.00,VWS V14.01,2013-05-28 19:29:00,
2013-05-28 15:34:00,65.2,39.0,30.16,SW,223,11.0,11.0,38,0.00,,---,0.00,VWS V14.01,2013-05-28 19:34:00,
2013-05-28 15:39:00,63.5,37.5,30.16,SSW,198,10.0,11.0,38,0.00,,---,0.00,VWS V14.01,2013-05-28 19:39:00,
2013-05-28 15:44:00,63.5,37.5,30.16,SSW,198,10.0,11.0,38,0.00,,---,0.00,VWS V14.01,2013-05-28 19:44:00,
2013-05-28 15:49:00,63.5,37.5,30.16,SSW,202,13.0,13.0,38,0.00,,---,0.00,VWS V14.01,2013-05-28 19:49:00,
2013-05-28 15:55:00,63.5,37.5,30.16,SSW,202,13.0,13.0,38,0.00,,---,0.00,VWS V14.01,2013-05-28 19:55:00,
2013-05-28 16:00:00,63.5,37.5,30.16,SSW,202,13.0,13.0,38,0.00,,---,0.00,VWS V14.01,2013-05-28 20:00:00,
2013-05-28 16:05:00,63.5,37.5,30.16,SSW,202,13.0,13.0,38,0.00,,---,0.00,VWS V14.01,2013-05-28 20:05:00,
2013-05-28 16:10:00,63.5,37.5,30.16,SSW,202,13.0,13.0,38,0.00,,---,0.00,VWS V14.01,2013-05-28 20:10:00,
2013-05-28 16:15:00,63.5,37.5,30.16,SSW,202,13.0,13.0,38,0.00,,---,0.00,VWS V14.01,2013-05-28 20:15:00,
2013-05-28 16:20:00,63.5,37.5,30.15,SSW,202,13.0,13.0,38,0.00,,---,0.00,VWS V14.01,2013-05-28 20:20:00,
2013-05-28 16:25:00,63.5,37.5,30.15,SSW,202,13.0,13.0,38,0.00,,---,0.00,VWS V14.01,2013-05-28 20:25:00,
2013-05-28 16:30:00,63.5,37.5,30.15,SSW,196,3.0,13.0,38,0.00,,---,0.00,VWS V14.01,2013-05-28 20:30:00,
2013-05-28 16:35:00,63.5,37.5,30.16,SSW,196,3.0,13.0,38,0.00,,---,0.00,VWS V14.01,2013-05-28 20:35:00,
2013-05-28 16:40:00,63.5,37.5,30.16,SSW,196,3.0,13.0,38,0.00,,---,0.00,VWS V14.01,2013-05-28 20:40:00,
2013-05-28 16:45:00,63.5,37.5,30.16,SSW,196,3.0,13.0,38,0.00,,---,0.00,VWS V14.01,2013-05-28 20:45:00,
2013-05-28 16:50:00,63.5,37.5,30.15,SSW,196,3.0,13.0,38,0.00,,---,0.00,VWS V14.01,2013-05-28 20:50:00,
2013-05-28 16:55:00,63.5,37.5,30.15,SSW,196,3.0,13.0,38,0.00,,---,0.00,VWS V14.01,2013-05-28 20:55:00,
2013-05-28 17:00:00,63.5,37.5,30.15,SSW,196,3.0,13.0,38,0.00,,---,0.00,VWS V14.01,2013-05-28 21:00:00,
2013-05-28 17:05:00,63.5,37.5,30.15,SSW,196,3.0,3.0,38,0.00,,---,0.00,VWS V14.01,2013-05-28 21:05:00,
2013-05-28 17:10:00,63.5,37.5,30.15,SSW,196,3.0,3.0,38,0.00,,---,0.00,VWS V14.01,2013-05-28 21:10:00,
2013-05-28 17:15:00,63.5,37.5,30.15,SSW,196,3.0,3.0,38,0.00,,---,0.00,VWS V14.01,2013-05-28 21:15:00,
2013-05-28 17:20:00,63.5,37.5,30.15,SSW,196,3.0,3.0,38,0.00,,---,0.00,VWS V14.01,2013-05-28 21:20:00,
2013-05-28 17:26:00,63.5,37.5,30.15,SSW,196,3.0,3.0,38,0.00,,---,0.00,VWS V14.01,2013-05-28 21:26:00,
2013-05-28 17:31:00,63.5,37.5,30.15,SW,226,11.0,11.0,38,0.00,,---,0.00,VWS V14.01,2013-05-28 21:31:00,
2013-05-28 17:36:00,63.5,37.5,30.15,SW,226,11.0,11.0,38,0.00,,---,0.00,VWS V14.01,2013-05-28 21:36:00,
2013-05-28 17:41:00,63.5,37.5,30.15,SW,226,11.0,11.0,38,0.00,,---,0.00,VWS V14.01,2013-05-28 21:41:00,
2013-05-28 17:46:00,63.5,37.5,30.15,SW,226,11.0,11.0,38,0.00,,---,0.00,VWS V14.01,2013-05-28 21:46:00,
2013-05-28 17:52:00,63.5,37.5,30.15,SW,226,11.0,11.0,38,0.00,,---,0.00,VWS V14.01,2013-05-28 21:52:00,
2013-05-28 17:57:00,63.5,37.5,30.15,SW,226,11.0,11.0,38,0.00,,---,0.00,VWS V14.01,2013-05-28 21:57:00,
2013-05-28 18:02:00,63.5,37.5,30.15,SW,226,11.0,11.0,38,0.00,,---,0.00,VWS V14.01,2013-05-28 22:02:00,
2013-05-28 18:07:00,63.5,37.5,30.15,SW,226,11.0,11.0,38,0.00,,---,0.00,VWS V14.01,2013-05-28 22:07:00,
2013-05-28 18:12:00,63.5,37.5,30.15,SW,226,11.0,11.0,38,0.00,,---,0.00,VWS V14.01,2013-05-28 22:12:00,
2013-05-28 18:17:00,63.5,37.5,30.15,SW,226,11.0,11.0,38,0.00,,---,0.00,VWS V14.01,2013-05-28 22:17:00,
2013-05-28 18:22:00,63.5,37.5,30.15,SW,226,11.0,11.0,38,0.00,,---,0.00,VWS V14.01,2013-05-28 22:22:00,
2013-05-28 18:27:00,63.5,37.5,30.15,SW,226,11.0,11.0,38,0.00,,---,0.00,VWS V14.01,2013-05-28 22:27:00,
2013-05-28 18:32:00,63.5,37.5,30.16,SW,226,11.0,11.0,38,0.00,,---,0.00,VWS V14.01,2013-05-28 22:32:00,
2013-05-28 18:37:00,63.5,37.5,30.16,SW,226,11.0,11.0,38,0.00,,---,0.00,VWS V14.01,2013-05-28 22:37:00,
2013-05-28 18:42:00,63.5,37.5,30.16,SW,226,11.0,11.0,38,0.00,,---,0.00,VWS V14.01,2013-05-28 22:42:00,
2013-05-28 18:47:00,63.5,37.5,30.16,SW,226,11.0,11.0,38,0.00,,---,0.00,VWS V14.01,2013-05-28 22:47:00,
2013-05-28 18:52:00,63.5,37.5,30.16,SW,226,11.0,11.0,38,0.00,,---,0.00,VWS V14.01,2013-05-28 22:52:00,
2013-05-28 18:57:00,63.5,37.5,30.16,SW,226,11.0,11.0,38,0.00,,---,0.00,VWS V14.01,2013-05-28 22:57:00,
2013-05-28 19:02:00,63.5,37.5,30.15,SW,226,11.0,11.0,38,0.00,,---,0.00,VWS V14.01,2013-05-28 23:02:00,
2013-05-28 19:07:00,63.5,37.5,30.15,SW,226,11.0,11.0,38,0.00,,---,0.00,VWS V14.01,2013-05-28 23:07:00,
2013-05-28 19:13:00,63.5,37.5,30.15,SW,226,11.0,11.0,38,0.00,,---,0.00,VWS V14.01,2013-05-28 23:13:00,
2013-05-28 19:18:00,63.5,37.5,30.15,SW,226,11.0,11.0,38,0.00,,---,0.00,VWS V14.01,2013-05-28 23:18:00,
2013-05-28 19:23:00,63.5,37.5,30.15,SW,226,11.0,11.0,38,0.00,,---,0.00,VWS V14.01,2013-05-28 23:23:00,
2013-05-28 19:28:00,63.5,37.5,30.15,SW,226,11.0,11.0,38,0.00,,---,0.00,VWS V14.01,2013-05-28 23:28:00,
2013-05-28 19:33:00,63.5,37.5,30.15,SW,226,11.0,11.0,38,0.00,,---,0.00,VWS V14.01,2013-05-28 23:33:00,
2013-05-28 19:38:00,63.5,37.5,30.15,SW,226,11.0,11.0,38,0.00,,---,0.00,VWS V14.01,2013-05-28 23:38:00,
2013-05-28 19:43:00,63.5,37.5,30.15,SW,226,11.0,11.0,38,0.00,,---,0.00,VWS V14.01,2013-05-28 23:43:00,
2013-05-28 19:48:00,63.5,37.5,30.15,SW,226,11.0,11.0,38,0.00,,---,0.00,VWS V14.01,2013-05-28 23:48:00,
2013-05-28 19:53:00,63.5,37.5,30.15,SW,226,11.0,11.0,38,0.00,,---,0.00,VWS V14.01,2013-05-28 23:53:00,
2013-05-28 19:58:00,63.5,37.5,30.15,SW,226,11.0,11.0,38,0.00,,---,0.00,VWS V14.01,2013-05-28 23:58:00,
2013-05-28 20:03:00,63.5,37.5,30.15,SW,226,11.0,11.0,38,0.00,,---,0.00,VWS V14.01,2013-05-29 00:03:00,
2013-05-28 20:08:00,63.5,37.5,30.15,SW,226,11.0,11.0,38,0.00,,---,0.00,VWS V14.01,2013-05-29 00:08:00,
2013-05-28 20:13:00,63.5,37.5,30.15,SW,226,11.0,11.0,38,0.00,,---,0.00,VWS V14.01,2013-05-29 00:13:00,
2013-05-28 20:18:00,63.5,37.5,30.16,SW,226,11.0,11.0,38,0.00,,---,0.00,VWS V14.01,2013-05-29 00:18:00,
2013-05-28 20:23:00,63.5,37.5,30.16,SW,226,11.0,11.0,38,0.00,,---,0.00,VWS V14.01,2013-05-29 00:23:00,
2013-05-28 20:28:00,63.5,37.5,30.16,SW,226,11.0,11.0,38,0.00,,---,0.00,VWS V14.01,2013-05-29 00:28:00,
2013-05-28 20:33:00,63.5,37.5,30.15,SW,226,11.0,11.0,38,0.00,,---,0.00,VWS V14.01,2013-05-29 00:33:00,
2013-05-28 20:39:00,63.5,37.5,30.15,SW,226,11.0,11.0,38,0.00,,---,0.00,VWS V14.01,2013-05-29 00:39:00,
2013-05-28 20:44:00,63.5,37.5,30.15,SW,226,11.0,11.0,38,0.00,,---,0.00,VWS V14.01,2013-05-29 00:44:00,
2013-05-28 20:49:00,63.5,37.5,30.16,SW,226,11.0,11.0,38,0.00,,---,0.00,VWS V14.01,2013-05-29 00:49:00,
2013-05-28 20:54:00,63.5,37.5,30.16,SW,226,11.0,11.0,38,0.00,,---,0.00,VWS V14.01,2013-05-29 00:54:00,
2013-05-28 20:59:00,63.5,37.5,30.16,SW,226,11.0,11.0,38,0.00,,---,0.00,VWS V14.01,2013-05-29 00:59:00,
2013-05-28 21:04:00,63.5,37.5,30.16,SW,226,11.0,11.0,38,0.00,,---,0.00,VWS V14.01,2013-05-29 01:04:00,
2013-05-28 21:09:00,63.5,37.5,30.16,SW,226,11.0,11.0,38,0.00,,---,0.00,VWS V14.01,2013-05-29 01:09:00,
2013-05-28 21:14:00,63.5,37.5,30.16,SW,226,11.0,11.0,38,0.00,,---,0.00,VWS V14.01,2013-05-29 01:14:00,
2013-05-28 21:19:00,63.5,37.5,30.16,SW,226,11.0,11.0,38,0.00,,---,0.00,VWS V14.01,2013-05-29 01:19:00,
2013-05-28 21:24:00,63.5,37.5,30.16,SW,226,11.0,11.0,38,0.00,,---,0.00,VWS V14.01,2013-05-29 01:24:00,
2013-05-28 21:29:00,63.5,37.5,30.16,SW,226,11.0,11.0,38,0.00,,---,0.00,VWS V14.01,2013-05-29 01:29:00,
2013-05-28 21:34:00,63.5,37.5,30.16,SW,226,11.0,11.0,38,0.00,,---,0.00,VWS V14.01,2013-05-29 01:34:00,
2013-05-28 21:39:00,63.5,37.5,30.16,SW,226,11.0,11.0,38,0.00,,---,0.00,VWS V14.01,2013-05-29 01:39:00,
2013-05-28 21:44:00,63.5,37.5,30.16,SW,226,11.0,11.0,38,0.00,,---,0.00,VWS V14.01,2013-05-29 01:44:00,
2013-05-28 21:49:00,63.5,37.5,30.16,SW,226,11.0,11.0,38,0.00,,---,0.00,VWS V14.01,2013-05-29 01:49:00,
2013-05-28 21:55:00,63.5,37.5,30.16,SW,226,11.0,11.0,38,0.00,,---,0.00,VWS V14.01,2013-05-29 01:55:00,
2013-05-28 22:00:00,63.5,37.5,30.16,SW,226,11.0,11.0,38,0.00,,---,0.00,VWS V14.01,2013-05-29 02:00:00,
2013-05-28 22:05:00,63.5,37.5,30.16,SW,226,11.0,11.0,38,0.00,,---,0.00,VWS V14.01,2013-05-29 02:05:00,
2013-05-28 22:10:00,63.5,37.5,30.16,SW,226,11.0,11.0,38,0.00,,---,0.00,VWS V14.01,2013-05-29 02:10:00,
2013-05-28 22:15:00,63.5,37.5,30.16,SW,226,11.0,11.0,38,0.00,,---,0.00,VWS V14.01,2013-05-29 02:15:00,
2013-05-28 22:20:00,63.5,37.5,30.17,SW,226,11.0,11.0,38,0.00,,---,0.00,VWS V14.01,2013-05-29 02:20:00,
2013-05-28 22:25:00,63.5,37.5,30.17,SW,226,11.0,11.0,38,0.00,,---,0.00,VWS V14.01,2013-05-29 02:25:00,
2013-05-28 22:30:00,63.5,37.5,30.17,SW,226,11.0,11.0,38,0.00,,---,0.00,VWS V14.01,2013-05-29 02:30:00,
2013-05-28 22:35:00,63.5,37.5,30.17,SW,226,11.0,11.0,38,0.00,,---,0.00,VWS V14.01,2013-05-29 02:35:00,
2013-05-28 22:40:00,63.5,37.5,30.17,SW,226,11.0,11.0,38,0.00,,---,0.00,VWS V14.01,2013-05-29 02:40:00,
2013-05-28 22:45:00,63.5,37.5,30.16,SW,226,11.0,11.0,38,0.00,,---,0.00,VWS V14.01,2013-05-29 02:45:00,
2013-05-28 22:50:00,63.5,37.5,30.16,SW,226,11.0,11.0,38,0.00,,---,0.00,VWS V14.01,2013-05-29 02:50:00,
2013-05-28 22:55:00,63.5,37.5,30.16,SW,226,11.0,11.0,38,0.00,,---,0.00,VWS V14.01,2013-05-29 02:55:00,
2013-05-28 23:01:00,63.5,37.5,30.16,SW,226,11.0,11.0,38,0.00,,---,0.00,VWS V14.01,2013-05-29 03:01:00,
2013-05-28 23:06:00,63.5,37.5,30.16,SW,226,11.0,11.0,38,0.00,,---,0.00,VWS V14.01,2013-05-29 03:06:00,
2013-05-28 23:11:00,63.5,37.5,30.16,SW,226,11.0,11.0,38,0.00,,---,0.00,VWS V14.01,2013-05-29 03:11:00,
2013-05-28 23:16:00,63.5,37.5,30.17,SW,226,11.0,11.0,38,0.00,,---,0.00,VWS V14.01,2013-05-29 03:16:00,
2013-05-28 23:21:00,63.5,37.5,30.17,SW,226,11.0,11.0,38,0.00,,---,0.00,VWS V14.01,2013-05-29 03:21:00,
2013-05-28 23:26:00,63.5,37.5,30.17,SW,226,11.0,11.0,38,0.00,,---,0.00,VWS V14.01,2013-05-29 03:26:00,
2013-05-28 23:31:00,63.5,37.5,30.17,SW,226,11.0,11.0,38,0.00,,---,0.00,VWS V14.01,2013-05-29 03:31:00,
2013-05-28 23:36:00,63.5,37.5,30.17,SW,226,11.0,11.0,38,0.00,,---,0.00,VWS V14.01,2013-05-29 03:36:00,
2013-05-28 23:41:00,63.5,37.5,30.17,SW,226,11.0,11.0,38,0.00,,---,0.00,VWS V14.01,2013-05-29 03:41:00,
2013-05-28 23:46:00,63.5,37.5,30.17,SW,226,11.0,11.0,38,0.00,,---,0.00,VWS V14.01,2013-05-29 03:46:00,
2013-05-28 23:51:00,63.5,37.5,30.17,SW,226,11.0,11.0,38,0.00,,---,0.00,VWS V14.01,2013-05-29 03:51:00,
2013-05-28 23:56:00,63.5,37.5,30.17,SW,226,11.0,11.0,38,0.00,,---,0.00,VWS V14.01,2013-05-29 03:56:00,